Abingdon, VA

11:18 PM EDT on September 18, 2019 (GMT -0400)
Virginia Highlands

Weather History for KVJI - June, 2019

Change the Weather History Date:

Thursday, June 6, 2019

  Actual Average (KTRI) Record (KTRI)
Temperature  
Mean Temperature 71 °F -  
Max Temperature 78 °F 80 °F 95 °F (2008)
Min Temperature 64 °F 56 °F 43 °F (1954)
Cooling Degree Days 6    
Growing Degree Days 21 (Base 50)    
Moisture  
Dew Point 67 °F    
Average Humidity 94    
Maximum Humidity 100    
Minimum Humidity 65    
Precipitation  
Precipitation 0.10 in - - ()
Sea Level Pressure  
Sea Level Pressure 29.95 in    
Wind  
Wind Speed 4 mph (WSW)    
Max Wind Speed 16 mph    
Max Gust Speed 20 mph    
Visibility 7 miles    
Events Rain    
Averages and records for this station are not official NWS values.
T = Trace of Precipitation, MM = Missing Value Source: NWS Daily Summary

Daily Weather History Graph

Daily Weather History Graph

Search for Another Location

Airport or City:

Astronomy

Jun. 06, 2019 Rise Set
Actual Time 6:09 AM EDT 8:44 PM EDT
Civil Twilight 5:39 AM EDT 9:14 PM EDT
Nautical Twilight 5:01 AM EDT 9:52 PM EDT
Astronomical Twilight 4:19 AM EDT 10:34 PM EDT
Moon 9:16 AM EDT (6/6) No Moon Set
Length of Visible Light 15h 35m
Length of Day
14h 34m
Waxing Crescent, 13% of the Moon is Illuminated
Jun 6
Waxing Crescent
Jun 10
First Quarter
Jun 17
Full
Jun 25
Last Quarter
Jul 2
New

Hourly Weather History & Observations

Time (EDT) Temp. Dew Point Humidity Pressure Visibility Wind Dir Wind Speed Gust Speed Precip Events Conditions
12:37 AM 64.4 °F 64.4 °F 100% 29.98 in 7.0 mi Calm Calm - N/A   Scattered Clouds
12:57 AM 64.4 °F 64.4 °F 100% 29.98 in 5.0 mi Calm Calm - N/A   Scattered Clouds
1:37 AM 66.2 °F 66.2 °F 100% 29.98 in 7.0 mi Calm Calm - N/A   Mostly Cloudy
2:18 AM 66.2 °F 66.2 °F 100% 29.97 in 7.0 mi WSW 4.6 mph - N/A   Overcast
2:37 AM 66.2 °F 66.2 °F 100% 29.96 in 10.0 mi WSW 5.8 mph - N/A   Overcast
3:18 AM 66.2 °F 66.2 °F 100% 29.95 in 10.0 mi WSW 5.8 mph - N/A   Overcast
4:38 AM 66.2 °F 66.2 °F 100% 29.93 in 7.0 mi WSW 6.9 mph - N/A   Overcast
4:57 AM 66.2 °F 66.2 °F 100% 29.93 in 7.0 mi West 6.9 mph - N/A   Overcast
5:18 AM 66.2 °F 66.2 °F 100% 29.93 in 7.0 mi West 4.6 mph - N/A   Overcast
5:57 AM 66.2 °F 66.2 °F 100% 29.93 in 7.0 mi WSW 5.8 mph - N/A   Overcast
6:18 AM 66.2 °F 66.2 °F 100% 29.94 in 5.0 mi SW 5.8 mph - N/A   Overcast
6:57 AM 66.2 °F 66.2 °F 100% 29.95 in 5.0 mi SW 4.6 mph - N/A   Overcast
7:17 AM 66.2 °F 66.2 °F 100% 29.95 in 5.0 mi WSW 3.5 mph - N/A   Overcast
7:37 AM 68.0 °F 68.0 °F 100% 29.96 in 5.0 mi WSW 5.8 mph - N/A   Overcast
7:57 AM 68.0 °F 68.0 °F 100% 29.97 in 5.0 mi WSW 5.8 mph - N/A   Overcast
8:17 AM 68.0 °F 68.0 °F 100% 29.97 in 5.0 mi SW 6.9 mph - N/A   Overcast
8:37 AM 68.0 °F 68.0 °F 100% 29.97 in 5.0 mi WSW 4.6 mph - N/A   Overcast
8:57 AM 69.8 °F 68.0 °F 94% 29.98 in 5.0 mi WSW 6.9 mph - N/A   Overcast
9:57 AM 71.6 °F 68.0 °F 88% 29.98 in 5.0 mi West 5.8 mph - N/A   Overcast
10:17 AM 71.6 °F 68.0 °F 88% 29.98 in 5.0 mi WSW 6.9 mph - N/A   Overcast
11:17 AM 73.4 °F 68.0 °F 83% 29.97 in 7.0 mi SW 6.9 mph - N/A   Mostly Cloudy
11:37 AM 73.4 °F 68.0 °F 83% 29.97 in 7.0 mi SW 6.9 mph - N/A   Mostly Cloudy
11:57 AM 75.2 °F 69.8 °F 83% 29.97 in 7.0 mi West 8.1 mph - N/A   Mostly Cloudy
12:18 PM 77.0 °F 69.8 °F 78% 29.97 in 7.0 mi SW 9.2 mph - N/A   Mostly Cloudy
12:37 PM 77.0 °F 68.0 °F 74% 29.95 in 7.0 mi SW 10.4 mph - N/A   Scattered Clouds
1:17 PM 78.8 °F 68.0 °F 69% 29.95 in 10.0 mi SW 8.1 mph - N/A   Mostly Cloudy
1:38 PM 78.8 °F 68.0 °F 69% 29.95 in 10.0 mi West 9.2 mph - N/A   Overcast
1:58 PM 78.8 °F 66.2 °F 65% 29.94 in 10.0 mi SW 8.1 mph - N/A   Mostly Cloudy
2:17 PM 77.0 °F 66.2 °F 69% 29.94 in 10.0 mi WSW 5.8 mph - N/A   Mostly Cloudy
2:37 PM 71.6 °F 66.2 °F 83% 29.94 in 10.0 mi ENE 13.8 mph 18.4 mph N/A   Overcast
2:57 PM 66.2 °F 66.2 °F 100% 29.94 in 0.8 mi East 16.1 mph 19.6 mph 0.08 in Rain Heavy Rain
5:55 PM 69.8 °F 66.9 °F 91% 29.92 in 10.0 mi SE 3.5 mph - N/A   Unknown
6:15 PM 69.4 °F 66.4 °F 90% 29.92 in 10.0 mi Calm Calm - N/A   Clear
6:35 PM 69.1 °F 66.6 °F 92% 29.92 in 10.0 mi Calm Calm - N/A Rain Light Rain
6:55 PM 69.3 °F 67.1 °F 93% 29.92 in 10.0 mi SW 3.5 mph - N/A   Light Drizzle
7:15 PM 68.5 °F 66.7 °F 94% 29.93 in 10.0 mi Calm Calm - N/A Rain Light Rain
7:35 PM 68.2 °F 67.6 °F 98% 29.93 in 7.0 mi Calm Calm - 0.01 in   Light Drizzle
7:55 PM 68.0 °F 68.0 °F 100% 29.93 in 7.0 mi Calm Calm - 0.01 in   Scattered Clouds
8:15 PM 68.0 °F 68.0 °F 100% 29.93 in 7.0 mi Calm Calm - N/A   Scattered Clouds
8:35 PM 67.6 °F 67.6 °F 100% 29.93 in 5.0 mi Calm Calm - N/A   Mostly Cloudy
8:55 PM 67.3 °F 67.3 °F 100% 29.93 in 4.0 mi Calm Calm - N/A   Mostly Cloudy
9:15 PM 67.1 °F 67.1 °F 100% 29.94 in 5.0 mi Calm Calm - N/A   Clear
9:35 PM 67.1 °F 67.1 °F 100% 29.94 in 5.0 mi Calm Calm - N/A   Mostly Cloudy
9:55 PM 66.9 °F 66.9 °F 100% 29.94 in 7.0 mi Calm Calm - N/A   Mostly Cloudy
10:15 PM 67.1 °F 67.1 °F 100% 29.95 in 7.0 mi Calm Calm - N/A   Overcast
10:35 PM 67.1 °F 67.1 °F 100% 29.95 in 4.0 mi Calm Calm - N/A   Overcast
10:55 PM 67.1 °F 67.1 °F 100% 29.95 in 4.0 mi Calm Calm - N/A   Overcast
11:15 PM 66.9 °F 66.9 °F 100% 29.95 in 7.0 mi Calm Calm - N/A Rain Rain
11:35 PM 67.1 °F 67.1 °F 100% 29.95 in 3.0 mi Calm Calm - N/A Rain Light Rain
11:55 PM 67.1 °F 67.1 °F 100% 29.94 in 2.5 mi Calm Calm - 0.01 in   Light Drizzle